Lexington Weather

Lexington, Massachusetts, USA

54°F
12/10/2019 4:26pm 
  • Lexington Conditions: Light rain, Overcast
  • Temperature: 54.0°F / 12.2°CColder 0.7°F than last hour.
  • Dew Point: 52.5°FDecreased 0.2°Fsince last hour.
  • Relative Humidity: 95%Increased 2.0% since last hour.
  • Wind: Wind from WSW WSW 4 mph, 10-min avg: 3 mph, gust: 7 mph
  • Barometer: 29.71 inRising 0.04  inHg/hr Rising Slowly
  • Visibility: 10 miles
  • Rain Today: 0.04 in
  •   

Regional Weather Roundup
for Boston / Norton, MA

        
000
ASUS41 KBOX 081400
RWRBOX

REGIONAL WEATHER ROUNDUP
NATIONAL WEATHER SERVICE BOSTON/NORTON MA
900 AM EST SUN DEC 08 2019

NOTE:  "FAIR" INDICATES FEW OR NO CLOUDS BELOW 12,000 FEET WITH NO 
SIGNIFICANT WEATHER AND/OR OBSTRUCTIONS TO VISIBILITY.

MAZALL-081500-
EASTERN MASSACHUSETTS
  
CITY           SKY/WX    TMP DP  RH WIND       PRES   REMARKS
BOSTON         FAIR      26  15  63 S5        30.55S WCI  20          
BEVERLY        FAIR      19  13  77 CALM      30.53S                  
LAWRENCE       FAIR      15  10  80 S5        30.54S WCI   8          
BEDFORD        FAIR       9   6  88 CALM      30.53S                  
BLUE HILL        N/A     21  11  65 SW6       30.49S WCI  13          
NORWOOD        FAIR      21  15  78 CALM      30.55S                  
MARSHFIELD     NOT AVBL                                               
PLYMOUTH       FAIR      21  17  84 CALM      30.55S                  
TAUNTON        FAIR      21  17  84 CALM      30.56R                  
NEW BEDFORD    FAIR      24  19  81 CALM      30.56R                  
$$

MAZALL-081500-
CAPE COD AND THE ISLANDS
  
CITY           SKY/WX    TMP DP  RH WIND       PRES   REMARKS
FALMOUTH       SUNNY     25  16  68 CALM      30.56S                  
HYANNIS        NOT AVBL                                               
CHATHAM        FAIR      31  20  63 CALM      30.56R                  
PROVINCETOWN   FAIR      31  20  63 W7        30.56R WCI  24          
NANTUCKET      FAIR      33  20  58 NW5       30.57R WCI  29          
MARTHAS VNYRD  FAIR      30  19  63 CALM      30.56R                  
$$
 
MAZALL-081500-
CENTRAL AND WESTERN MASSACHUSETTS
  
CITY           SKY/WX    TMP DP  RH WIND       PRES   REMARKS
WORCESTER      FAIR      17   9  70 SW7       30.46F WCI   8          
FITCHBURG      FAIR       9   4  80 CALM      30.52S                  
ORANGE         PTSUNNY    0  -2  91 CALM      30.53R                  
SPRINGFIELD    MOSUNNY    2  -2  81 CALM      30.53S                  
WESTFIELD      FAIR       8   5  87 CALM      30.54S                  
NORTH ADAMS    FAIR       7   2  80 CALM      30.50S                  
PITTSFIELD     FOG        8   4  83 CALM      30.44S VSB 1/2          
$$
 
RIZALL-081500-
RHODE ISLAND
  
CITY           SKY/WX    TMP DP  RH WIND       PRES   REMARKS
PROVIDENCE     FAIR      23  15  71 CALM      30.56S                  
NEWPORT        FAIR      28  18  66 CALM      30.55S                  
BLOCK ISLAND   FAIR      30  18  60 CALM      30.56S                  
SMITHFIELD     FAIR      21  13  71 CALM      30.52S                  
WESTERLY       FAIR      27  14  58 N3        30.56F                  
$$
 
CTZALL-081500-
CONNECTICUT
  
CITY           SKY/WX    TMP DP  RH WIND       PRES   REMARKS
BRADLEY INTL   FAIR      15   6  67 NE3       30.54S                  
HARTFORD       FAIR      19  15  84 CALM      30.56S                  
BRIDGEPORT     FAIR      27  17  66 N3        30.56S                  
DANBURY        FAIR      20  16  84 CALM      30.54S                  
GROTON         NOT AVBL                                               
NEW HAVEN      FAIR      27  18  69 CALM      30.56S                  
CHESTER        FAIR      27  14  59 CALM      30.53R                  
MERIDEN        FAIR      20  16  84 CALM      30.56S                  
WILLIMANTIC    FAIR      13  10  88 CALM      30.56F                  
OXFORD         FAIR      22  18  85 CALM      30.51S                  
$$

MEZ002-015-021-024-NHZ003-005-008-011-012-014-VTZ005-008-081500-
NORTHERN NEW ENGLAND
  
CITY           SKY/WX    TMP DP  RH WIND       PRES   REMARKS
PORTLAND ME    FAIR      16   7  67 CALM      30.52S                  
BANGOR ME      FAIR       8   5  87 CALM      30.49R                  
CONCORD NH     FAIR       4   2  91 CALM      30.51S                  
MANCHESTER NH  FAIR       8   6  92 CALM      30.50S                  
NASHUA NH      FAIR       9   7  92 CALM      30.53S                  
PORTSMOUTH NH  MOSUNNY   15  10  78 CALM      30.50F                  
JAFFREY NH     FAIR      -1  -5  82 S3        30.45S                  
KEENE NH       FAIR       3  -1  83 CALM      30.53S                  
BURLINGTON VT  FAIR      20  12  71 S10       30.39F WCI   9          
MT. WASHINGTON MOSUNNY   10   1  67 W28         N/A  WCI -11          
$$

NYZ052-076-081500-
EASTERN NEW YORK
  
CITY           SKY/WX    TMP DP  RH WIND       PRES   REMARKS
ALBANY         FAIR      13   7  77 CALM      30.52S                  
NEW YORK CITY  PTSUNNY   31  16  54 SE6       30.56R WCI  25          
$$
 
ANZALL-081500-
MARINE OBSERVATIONS
  
STATION/POSITION TIME  TEMP    WIND        PRES    VSBY  WAVE
                       AIR SEA DIR/SP/G                  HT/PER
                 (UTC) (F)     (DEG/KT/KT) (MB)    (MI)  (FT/S)
BOSTON BUOY      1250   29 47  290/  6/ 10 1033.6          1/ 4
BUZZARDS BAY     1300   28     350/  4/  5 1035.2R
NANTUCKET SOUND  1340      41              1035.3
MASS BAY-STELLWA 1304   27 46  290/  8/ 12 1032.3R  1 7/8  2/ 4
ISLE OF SHOALS   1300   23     280/ 11/ 12 1033.2R
S OF BLOCK IS    1330      52                N/A           1/ 7
$$

......................KEY.........................
  SKY/WX - SKY CONDITION/PRESENT WEATHER
  TMP    - TEMPERATURE IN FAHRENHEIT
  DWPT   - DEWPOINT IN FAHRENHEIT
  RH     - RELATIVE HUMIDITY IN PERCENT
  WIND   - DIRECTION AND SPEED IN MPH
  PRES   - MEAN SEA LEVEL PRESSURE IN INCHES OF HG
  WCI    - WIND CHILL INDEX
  VSB    - VISIBILITY IN MILES
  HX     - HEAT INDEX
  TC     - TEMPERATURE IN CELSIUS
  VRB    - VARIABLE WIND DIRECTION
  N/A    - NOT AVAILABLE
  
      

Other recent Regional Weather Roundups

Tue Dec 10, 4:10pm

Tue Dec 10, 4:01pm

Tue Dec 10, 3:10pm

Tue Dec 10, 3:01pm

Tue Dec 10, 2:10pm

Tue Dec 10, 2:01pm

Tue Dec 10, 1:10pm

Tue Dec 10, 1:00pm

Tue Dec 10, 12:10pm

Tue Dec 10, 12:00pm

Tue Dec 10, 11:10am

Tue Dec 10, 11:00am

Tue Dec 10, 10:10am

Tue Dec 10, 10:00am

Tue Dec 10, 9:10am

Tue Dec 10, 9:01am

Tue Dec 10, 8:10am

Tue Dec 10, 8:00am

Tue Dec 10, 7:10am

Tue Dec 10, 7:00am

Tue Dec 10, 6:10am

Tue Dec 10, 6:00am

Tue Dec 10, 5:10am

Tue Dec 10, 5:00am

Tue Dec 10, 4:10am

Tue Dec 10, 4:00am

Tue Dec 10, 3:10am

Tue Dec 10, 3:00am

Tue Dec 10, 2:10am

Tue Dec 10, 2:01am

Tue Dec 10, 1:10am

Tue Dec 10, 1:00am

Tue Dec 10, 12:10am

Tue Dec 10, 12:01am

Mon Dec 9, 11:10pm

Mon Dec 9, 11:01pm

Mon Dec 9, 10:10pm

Mon Dec 9, 10:00pm

Mon Dec 9, 9:10pm

Mon Dec 9, 9:01pm

Mon Dec 9, 8:10pm

Mon Dec 9, 8:01pm

Mon Dec 9, 7:10pm

Mon Dec 9, 7:00pm

Mon Dec 9, 6:10pm

Mon Dec 9, 6:00pm

Mon Dec 9, 5:10pm

Mon Dec 9, 5:01pm

Mon Dec 9, 4:10pm

Mon Dec 9, 4:01pm

Mon Dec 9, 3:10pm

Mon Dec 9, 3:01pm

Mon Dec 9, 2:10pm

Mon Dec 9, 2:00pm

Mon Dec 9, 1:10pm

Mon Dec 9, 1:00pm

Mon Dec 9, 12:10pm

Mon Dec 9, 12:00pm

Mon Dec 9, 11:10am

Mon Dec 9, 11:00am

Mon Dec 9, 10:10am

Mon Dec 9, 10:00am

Mon Dec 9, 9:10am

Mon Dec 9, 9:00am

Mon Dec 9, 8:10am

Mon Dec 9, 8:00am

Mon Dec 9, 7:10am

Mon Dec 9, 7:00am

Mon Dec 9, 6:10am

Mon Dec 9, 6:00am

Mon Dec 9, 5:10am

Mon Dec 9, 5:00am

Mon Dec 9, 4:10am

Mon Dec 9, 4:00am

Mon Dec 9, 3:10am

Mon Dec 9, 3:00am

Mon Dec 9, 2:10am

Mon Dec 9, 2:00am

Mon Dec 9, 1:10am

Mon Dec 9, 1:00am

Mon Dec 9, 12:10am

Mon Dec 9, 12:00am

Sun Dec 8, 11:10pm

Sun Dec 8, 11:00pm

Sun Dec 8, 10:10pm

Sun Dec 8, 10:01pm

Sun Dec 8, 9:10pm

Sun Dec 8, 9:01pm

Sun Dec 8, 8:10pm

Sun Dec 8, 8:00pm

Sun Dec 8, 7:10pm

Sun Dec 8, 7:00pm

Sun Dec 8, 6:10pm

Sun Dec 8, 6:01pm

Sun Dec 8, 5:10pm

Sun Dec 8, 5:00pm

Sun Dec 8, 4:10pm

Sun Dec 8, 4:01pm

Sun Dec 8, 3:10pm

Sun Dec 8, 3:01pm

Sun Dec 8, 2:10pm

Sun Dec 8, 2:01pm

Sun Dec 8, 1:10pm

Sun Dec 8, 1:00pm

Sun Dec 8, 12:10pm

Sun Dec 8, 12:01pm

Sun Dec 8, 11:10am

Sun Dec 8, 11:00am

Sun Dec 8, 10:10am

Sun Dec 8, 10:01am

Sun Dec 8, 9:10am

Sun Dec 8, 8:10am

Sun Dec 8, 8:00am

Sun Dec 8, 7:10am

Sun Dec 8, 7:00am

Sun Dec 8, 6:10am

Sun Dec 8, 6:00am

Sun Dec 8, 5:10am

Sun Dec 8, 5:00am

Sun Dec 8, 4:10am

Sun Dec 8, 4:00am

Sun Dec 8, 3:10am

Sun Dec 8, 3:00am

Sun Dec 8, 2:10am

Sun Dec 8, 2:00am

Sun Dec 8, 1:10am

Sun Dec 8, 1:00am

Sun Dec 8, 12:10am

Sun Dec 8, 12:01am

Sat Dec 7, 11:10pm

Sat Dec 7, 11:00pm

Sat Dec 7, 10:10pm

Sat Dec 7, 10:00pm

Sat Dec 7, 9:10pm

Sat Dec 7, 9:00pm

Sat Dec 7, 8:10pm

Sat Dec 7, 8:00pm

Sat Dec 7, 7:10pm

Sat Dec 7, 7:00pm

Sat Dec 7, 6:10pm

Sat Dec 7, 6:00pm

Sat Dec 7, 5:10pm

Sat Dec 7, 5:00pm

Meta data:

ID: b3701e84-f6b6-49ab-a6f3-38b4c3bc15cb
Link: https://api.weather.gov/products/b3701e84-f6b6-49ab-a6f3-38b4c3bc15cb